^^
Station Historical Data
Daily Summary for June 16, 2017 Units:  English    Metric   Both
« Previous Day
Next Day »
Daily Weekly Monthly Yearly Custom
  High: Low: Average:
Temperature: 71.5 °F 62.2 °F 66.5 °F
Dew Point: 66.2 °F 46.8 °F 60.4 °F
Humidity: 91 % 48 % 82 %
Wind Speed: 1.1 mph 0.0 mph 0 mph
Wind Gust: 4.6 mph - -
Wind:- - NE
Pressure: 30.00 in 29.90 in -
Precipitation: 0.05 in    
Historical Graphs
 
 
Tabular Data for June 16, 2017
Time Temperature Dew Point Pressure Wind Wind Speed Wind Gust Humidity Rainfall Rate (Hourly) solar Conditions
00:04 67.3 °F 47.5 °F 30.00 in Calm   1.2 mph 49 % 0.00 in 0.0 W/m2 OVC
00:09 67.2 °F 46.8 °F 30.00 in Calm   1.2 mph 48 % 0.00 in 0.0 W/m2 OVC
00:14 67.0 °F 47.2 °F 30.00 in Calm     49 % 0.00 in 0.0 W/m2 OVC
00:19 66.8 °F 47.6 °F 30.00 in Calm     50 % 0.00 in 0.0 W/m2 OVC
00:24 66.7 °F 47.5 °F 30.00 in Calm     50 % 0.00 in 0.0 W/m2 OVC
00:25 66.7 °F 47.5 °F 30.00 in Calm     50 % 0.00 in 0.0 W/m2 OVC
00:30 66.5 °F 47.8 °F 30.00 in Calm     51 % 0.00 in 0.0 W/m2 OVC
00:35 66.3 °F 48.1 °F 29.99 in Calm     52 % 0.00 in 0.0 W/m2 OVC
00:40 66.3 °F 48.7 °F 29.99 in Calm     53 % 0.00 in 0.0 W/m2 OVC
00:45 66.2 °F 49.1 °F 29.99 in Calm   1.2 mph 54 % 0.00 in 0.0 W/m2 OVC
00:46 66.1 °F 49.0 °F 29.99 in Calm   1.2 mph 54 % 0.00 in 0.0 W/m2 OVC
00:51 66.1 °F 49.5 °F 29.99 in Calm   1.2 mph 55 % 0.00 in 0.0 W/m2 OVC
00:56 65.9 °F 49.3 °F 29.98 in Calm     55 % 0.00 in 0.0 W/m2 OVC
01:01 65.7 °F 49.6 °F 29.98 in Calm     56 % 0.00 in 0.0 W/m2 SCT
01:06 65.7 °F 49.6 °F 29.98 in Calm     56 % 0.00 in 0.0 W/m2 SCT
01:11 65.5 °F 49.4 °F 29.98 in Calm     56 % 0.00 in 0.0 W/m2 SCT
01:12 65.4 °F 49.3 °F 29.98 in Calm     56 % 0.00 in 0.0 W/m2 SCT
01:17 65.1 °F 50.0 °F 29.98 in Calm     58 % 0.00 in 0.0 W/m2 SCT
01:22 64.8 °F 49.7 °F 29.98 in Calm     58 % 0.00 in 0.0 W/m2 SCT
01:27 64.7 °F 50.0 °F 29.98 in Calm     59 % 0.00 in 0.0 W/m2 SCT
01:32 64.6 °F 49.9 °F 29.98 in Calm     59 % 0.00 in 0.0 W/m2 SCT
01:37 64.5 °F 50.3 °F 29.97 in Calm     60 % 0.00 in 0.0 W/m2 SCT
01:42 64.4 °F 50.7 °F 29.97 in Calm     61 % 0.00 in 0.0 W/m2 SCT
01:47 64.2 °F 50.5 °F 29.97 in Calm     61 % 0.00 in 0.0 W/m2 SCT
01:52 64.2 °F 50.9 °F 29.97 in Calm     62 % 0.00 in 0.0 W/m2 SCT
01:57 64.2 °F 50.9 °F 29.97 in Calm     62 % 0.00 in 0.0 W/m2 SCT
02:02 64.2 °F 51.3 °F 29.97 in Calm   1.2 mph 63 % 0.00 in 0.0 W/m2 BKN
02:07 64.0 °F 51.1 °F 29.97 in Calm   1.2 mph 63 % 0.00 in 0.0 W/m2 BKN
02:12 63.8 °F 51.4 °F 29.97 in Calm     64 % 0.00 in 0.0 W/m2 BKN
02:17 63.7 °F 51.3 °F 29.96 in Calm     64 % 0.00 in 0.0 W/m2 BKN
02:22 63.7 °F 51.7 °F 29.96 in Calm     65 % 0.00 in 0.0 W/m2 BKN
02:27 63.6 °F 51.6 °F 29.96 in Calm     65 % 0.00 in 0.0 W/m2 BKN
02:32 63.5 °F 51.9 °F 29.96 in Calm     66 % 0.00 in 0.0 W/m2 BKN
02:37 63.5 °F 52.3 °F 29.96 in Calm     67 % 0.00 in 0.0 W/m2 BKN
02:42 63.5 °F 52.3 °F 29.96 in Calm     67 % 0.00 in 0.0 W/m2 BKN
02:47 63.4 °F 52.2 °F 29.96 in Calm     67 % 0.00 in 0.0 W/m2 BKN
02:52 63.4 °F 52.7 °F 29.96 in NNE 0.1 mph 1.2 mph 68 % 0.00 in 0.0 W/m2 BKN
02:57 63.2 °F 52.5 °F 29.95 in Calm   1.2 mph 68 % 0.00 in 0.0 W/m2 BKN
03:02 63.1 °F 52.8 °F 29.96 in Calm   2.3 mph 69 % 0.00 in 0.0 W/m2 OVC
03:07 63.1 °F 52.8 °F 29.96 in Calm   2.3 mph 69 % 0.00 in 0.0 W/m2 OVC
03:13 63.2 °F 53.3 °F 29.96 in Calm   1.2 mph 70 % 0.00 in 0.0 W/m2 OVC
03:18 63.1 °F 53.2 °F 29.96 in Calm     70 % 0.00 in 0.0 W/m2 OVC
03:23 63.1 °F 53.2 °F 29.96 in Calm   1.2 mph 70 % 0.00 in 0.0 W/m2 OVC
03:28 63.0 °F 53.4 °F 29.96 in Calm   1.2 mph 71 % 0.00 in 0.0 W/m2 OVC
03:33 63.1 °F 53.9 °F 29.96 in Calm     72 % 0.00 in 0.0 W/m2 OVC
03:38 63.0 °F 53.8 °F 29.96 in Calm   1.2 mph 72 % 0.00 in 0.0 W/m2 OVC
03:43 62.9 °F 53.7 °F 29.96 in Calm   1.2 mph 72 % 0.00 in 0.0 W/m2 OVC
03:48 63.0 °F 54.2 °F 29.96 in Calm     73 % 0.00 in 0.0 W/m2 OVC
03:53 62.9 °F 54.1 °F 29.96 in Calm     73 % 0.00 in 0.0 W/m2 OVC
03:58 62.9 °F 54.1 °F 29.95 in Calm     73 % 0.00 in 0.0 W/m2 OVC
04:03 62.8 °F 54.4 °F 29.95 in Calm     74 % 0.00 in 0.0 W/m2 OVC
04:08 62.8 °F 54.4 °F 29.95 in Calm   1.2 mph 74 % 0.00 in 0.0 W/m2 OVC
04:13 62.8 °F 54.8 °F 29.95 in Calm   1.2 mph 75 % 0.00 in 0.0 W/m2 OVC
04:18 62.8 °F 54.8 °F 29.95 in Calm   1.2 mph 75 % 0.00 in 0.0 W/m2 OVC
04:23 62.7 °F 55.0 °F 29.94 in Calm   1.2 mph 76 % 0.00 in 0.0 W/m2 OVC
04:28 62.7 °F 55.0 °F 29.95 in Calm     76 % 0.00 in 0.0 W/m2 OVC
04:33 62.7 °F 55.0 °F 29.95 in Calm     76 % 0.00 in 0.0 W/m2 OVC
04:38 62.7 °F 55.0 °F 29.94 in NNE 0.2 mph 1.2 mph 76 % 0.00 in 0.0 W/m2 OVC
04:43 62.6 °F 55.3 °F 29.95 in Calm   1.2 mph 77 % 0.00 in 0.0 W/m2 OVC
04:48 62.5 °F 55.2 °F 29.95 in Calm   1.2 mph 77 % 0.00 in 0.0 W/m2 OVC
04:53 62.5 °F 55.5 °F 29.95 in Calm     78 % 0.00 in 0.0 W/m2 OVC
04:58 62.5 °F 55.5 °F 29.95 in Calm   1.2 mph 78 % 0.00 in 0.0 W/m2 OVC
05:03 62.4 °F 55.4 °F 29.96 in Calm   1.2 mph 78 % 0.00 in 0.0 W/m2 OVC
05:08 62.4 °F 55.8 °F 29.96 in Calm     79 % 0.00 in 0.0 W/m2 OVC
05:13 62.4 °F 55.8 °F 29.96 in Calm     79 % 0.00 in 0.0 W/m2 OVC
05:18 62.4 °F 55.8 °F 29.96 in Calm     79 % 0.00 in 0.0 W/m2 OVC
05:23 62.5 °F 55.9 °F 29.95 in Calm     79 % 0.00 in 0.0 W/m2 OVC
05:28 62.4 °F 55.8 °F 29.96 in Calm     79 % 0.00 in 0.0 W/m2 OVC
05:33 62.4 °F 56.1 °F 29.96 in Calm     80 % 0.00 in 0.0 W/m2 OVC
05:38 62.5 °F 56.2 °F 29.96 in Calm     80 % 0.00 in 0.0 W/m2 OVC
05:43 62.4 °F 56.1 °F 29.95 in Calm     80 % 0.00 in 0.0 W/m2 OVC
05:48 62.4 °F 56.1 °F 29.95 in Calm     80 % 0.00 in 0.0 W/m2 OVC
05:53 62.4 °F 56.5 °F 29.95 in Calm   1.2 mph 81 % 0.00 in 0.0 W/m2 OVC
05:58 62.4 °F 56.5 °F 29.96 in Calm   1.2 mph 81 % 0.00 in 0.0 W/m2 OVC
06:03 62.5 °F 56.6 °F 29.96 in Calm   1.2 mph 81 % 0.00 in 5.0 W/m2 OVC
06:08 62.5 °F 56.6 °F 29.96 in Calm   1.2 mph 81 % 0.00 in 7.0 W/m2 OVC
06:13 62.5 °F 56.6 °F 29.96 in Calm   1.2 mph 81 % 0.00 in 12.0 W/m2 OVC
06:18 62.5 °F 56.6 °F 29.96 in Calm     81 % 0.00 in 18.0 W/m2 OVC
06:23 62.5 °F 56.9 °F 29.96 in Calm   1.2 mph 82 % 0.00 in 19.0 W/m2 OVC
06:28 62.7 °F 57.1 °F 29.96 in Calm   1.2 mph 82 % 0.00 in 14.0 W/m2 OVC
06:33 62.7 °F 57.1 °F 29.95 in Calm     82 % 0.00 in 23.0 W/m2 OVC
06:38 62.7 °F 57.1 °F 29.95 in NNE 0.1 mph 1.2 mph 82 % 0.00 in 26.0 W/m2 OVC
06:44 62.8 °F 57.2 °F 29.95 in Calm   1.2 mph 82 % 0.00 in 28.0 W/m2 OVC
06:49 63.0 °F 57.4 °F 29.95 in NNE 0.2 mph 1.2 mph 82 % 0.00 in 32.0 W/m2 OVC
06:54 63.0 °F 57.4 °F 29.96 in Calm   1.2 mph 82 % 0.00 in 18.0 W/m2 OVC
06:59 62.9 °F 57.3 °F 29.97 in Calm   1.2 mph 82 % 0.00 in 16.0 W/m2 OVC
07:04 63.0 °F 57.4 °F 29.97 in Calm     82 % 0.00 in 19.0 W/m2 OVC
07:09 62.9 °F 57.3 °F 29.97 in Calm   1.2 mph 82 % 0.00 in 25.0 W/m2 OVC
07:14 62.9 °F 57.3 °F 29.97 in Calm   1.2 mph 82 % 0.00 in 26.0 W/m2 OVC
07:19 63.0 °F 57.4 °F 29.97 in Calm     82 % 0.00 in 26.0 W/m2 OVC
07:24 63.0 °F 57.4 °F 29.97 in Calm     82 % 0.00 in 25.0 W/m2 OVC
07:29 63.0 °F 57.4 °F 29.97 in Calm     82 % 0.00 in 19.0 W/m2 OVC
07:34 63.0 °F 57.8 °F 29.97 in Calm     83 % 0.00 in 28.0 W/m2 OVC
07:39 63.2 °F 58.3 °F 29.97 in Calm     84 % 0.00 in 26.0 W/m2 OVC
07:44 63.1 °F 58.2 °F 29.97 in Calm     84 % 0.00 in 25.0 W/m2 OVC
07:50 62.9 °F 58.3 °F 29.97 in Calm     85 % 0.01 in 18.0 W/m2 RA
07:55 62.7 °F 58.5 °F 29.97 in Calm     86 % 0.02 in 14.0 W/m2 RA
08:00 62.6 °F 58.7 °F 29.97 in Calm     87 % 0.04 in 18.0 W/m2 RA
08:05 62.3 °F 58.4 °F 29.96 in Calm     87 % 0.04 in 28.0 W/m2 RA
08:10 62.2 °F 58.6 °F 29.97 in Calm     88 % 0.00 in 46.0 W/m2 OVC
08:15 62.2 °F 58.9 °F 29.96 in Calm     89 % 0.04 in 70.0 W/m2 OVC
08:20 62.3 °F 59.0 °F 29.96 in Calm     89 % 0.00 in 79.0 W/m2 OVC
08:25 62.4 °F 59.1 °F 29.96 in Calm     89 % 0.00 in 111.0 W/m2 OVC
08:30 62.3 °F 59.3 °F 29.96 in Calm     90 % 0.04 in 123.0 W/m2 OVC
08:35 62.2 °F 59.2 °F 29.96 in Calm     90 % 0.04 in 91.0 W/m2 OVC
08:40 62.2 °F 59.2 °F 29.96 in Calm     90 % 0.04 in 83.0 W/m2 OVC
08:45 62.5 °F 59.5 °F 29.96 in Calm     90 % 0.04 in 100.0 W/m2 OVC
08:50 62.5 °F 59.5 °F 29.96 in Calm   1.2 mph 90 % 0.02 in 84.0 W/m2 -RA
08:55 62.6 °F 59.6 °F 29.96 in Calm   1.2 mph 90 % 0.01 in 98.0 W/m2 -RA
09:00 62.7 °F 59.7 °F 29.96 in Calm   1.2 mph 90 % 0.00 in 121.0 W/m2 -RA
09:05 62.8 °F 59.8 °F 29.97 in Calm   1.2 mph 90 % 0.00 in 100.0 W/m2 OVC
09:10 63.2 °F 60.5 °F 29.97 in Calm   1.2 mph 91 % 0.00 in 121.0 W/m2 OVC
09:15 63.1 °F 60.1 °F 29.97 in Calm     90 % 0.00 in 69.0 W/m2 OVC
09:20 63.1 °F 60.1 °F 29.97 in Calm   1.2 mph 90 % 0.00 in 77.0 W/m2 OVC
09:25 63.1 °F 60.1 °F 29.96 in Calm   1.2 mph 90 % 0.00 in 163.0 W/m2 OVC
09:30 63.6 °F 60.9 °F 29.96 in Calm   1.2 mph 91 % 0.00 in 125.0 W/m2 OVC
09:36 63.4 °F 60.4 °F 29.96 in Calm     90 % 0.00 in 123.0 W/m2 OVC
09:41 63.8 °F 61.1 °F 29.96 in Calm   1.2 mph 91 % 0.00 in 163.0 W/m2 OVC
09:46 63.7 °F 60.7 °F 29.95 in Calm   1.2 mph 90 % 0.00 in 190.0 W/m2 OVC
09:51 63.9 °F 60.9 °F 29.95 in ENE 1.0 mph 1.2 mph 90 % 0.00 in 176.0 W/m2 OVC
09:56 64.1 °F 61.1 °F 29.95 in Calm   3.5 mph 90 % 0.00 in 257.0 W/m2 OVC
10:01 64.2 °F 61.2 °F 29.95 in Calm   3.5 mph 90 % 0.00 in 223.0 W/m2 OVC
10:06 64.6 °F 61.6 °F 29.95 in Calm   2.3 mph 90 % 0.00 in 218.0 W/m2 OVC
10:11 64.6 °F 61.3 °F 29.95 in ESE 0.1 mph 2.3 mph 89 % 0.00 in 169.0 W/m2 OVC
10:16 64.4 °F 61.1 °F 29.95 in Calm   1.2 mph 89 % 0.00 in 209.0 W/m2 OVC
10:21 64.7 °F 61.4 °F 29.95 in Calm   2.3 mph 89 % 0.00 in 139.0 W/m2 OVC
10:26 64.6 °F 61.3 °F 29.95 in Calm   2.3 mph 89 % 0.00 in 130.0 W/m2 OVC
10:31 64.8 °F 61.5 °F 29.95 in Calm   1.2 mph 89 % 0.00 in 204.0 W/m2 OVC
10:36 64.9 °F 61.6 °F 29.95 in Calm   1.2 mph 89 % 0.00 in 171.0 W/m2 OVC
10:41 65.0 °F 61.7 °F 29.95 in Calm   3.5 mph 89 % 0.00 in 135.0 W/m2 OVC
10:46 65.0 °F 61.7 °F 29.95 in Calm   3.5 mph 89 % 0.00 in 142.0 W/m2 OVC
10:51 65.0 °F 61.7 °F 29.95 in Calm   3.5 mph 89 % 0.00 in 84.0 W/m2 OVC
10:56 64.9 °F 61.6 °F 29.95 in Calm   1.2 mph 89 % 0.00 in 100.0 W/m2 OVC
11:01 65.1 °F 61.8 °F 29.95 in Calm   1.2 mph 89 % 0.00 in 97.0 W/m2 OVC
11:07 65.4 °F 62.1 °F 29.95 in Calm   1.2 mph 89 % 0.00 in 125.0 W/m2 OVC
11:12 65.4 °F 62.1 °F 29.95 in Calm     89 % 0.01 in 153.0 W/m2 RA
11:17 65.5 °F 62.2 °F 29.95 in Calm     89 % 0.01 in 135.0 W/m2 RA
11:22 65.7 °F 62.4 °F 29.95 in Calm     89 % 0.01 in 178.0 W/m2 OVC
11:27 65.7 °F 62.4 °F 29.95 in Calm     89 % 0.01 in 130.0 W/m2 OVC
11:32 66.1 °F 62.8 °F 29.95 in Calm     89 % 0.01 in 120.0 W/m2 OVC
11:37 66.0 °F 62.3 °F 29.95 in Calm     88 % 0.01 in 107.0 W/m2 OVC
11:42 66.1 °F 62.8 °F 29.96 in Calm     89 % 0.01 in 105.0 W/m2 OVC
11:47 66.1 °F 62.4 °F 29.95 in Calm     88 % 0.01 in 135.0 W/m2 OVC
11:52 65.9 °F 62.2 °F 29.95 in Calm     88 % 0.01 in 121.0 W/m2 OVC
11:57 66.0 °F 62.3 °F 29.96 in Calm     88 % 0.01 in 104.0 W/m2 OVC
12:02 66.1 °F 62.4 °F 29.96 in Calm     88 % 0.01 in 83.0 W/m2 OVC
12:07 66.3 °F 62.6 °F 29.96 in Calm     88 % 0.01 in 90.0 W/m2 OVC
12:12 66.4 °F 62.7 °F 29.96 in Calm     88 % 0.00 in 95.0 W/m2 OVC
12:17 66.3 °F 62.6 °F 29.96 in Calm     88 % 0.00 in 93.0 W/m2 OVC
12:22 66.3 °F 62.3 °F 29.95 in Calm     87 % 0.00 in 102.0 W/m2 OVC
12:27 66.4 °F 62.7 °F 29.95 in Calm     88 % 0.00 in 105.0 W/m2 OVC
12:29 66.4 °F 62.4 °F 29.95 in Calm     87 % 0.00 in 109.0 W/m2 OVC
12:34 66.7 °F 63.0 °F 29.95 in Calm     88 % 0.00 in 123.0 W/m2 OVC
12:39 66.7 °F 62.7 °F 29.95 in Calm     87 % 0.00 in 95.0 W/m2 OVC
12:44 66.7 °F 62.7 °F 29.95 in Calm   1.2 mph 87 % 0.00 in 81.0 W/m2 OVC
12:49 66.4 °F 62.4 °F 29.95 in Calm   1.2 mph 87 % 0.00 in 128.0 W/m2 OVC
12:54 66.6 °F 62.6 °F 29.95 in NNE 1.1 mph 3.5 mph 87 % 0.00 in 118.0 W/m2 OVC
12:59 66.6 °F 62.9 °F 29.95 in Calm   3.5 mph 88 % 0.00 in 102.0 W/m2 OVC
13:04 66.6 °F 62.9 °F 29.95 in Calm   3.5 mph 88 % 0.00 in 137.0 W/m2 -RA
13:09 66.8 °F 63.1 °F 29.95 in Calm   1.2 mph 88 % 0.00 in 128.0 W/m2 -RA
13:14 66.9 °F 63.6 °F 29.95 in Calm   1.2 mph 89 % 0.00 in 135.0 W/m2 -RA
13:15 66.9 °F 63.6 °F 29.94 in Calm   1.2 mph 89 % 0.00 in 139.0 W/m2 -RA
13:20 66.8 °F 63.5 °F 29.94 in Calm   1.2 mph 89 % 0.00 in 158.0 W/m2 -RA
13:25 66.9 °F 63.6 °F 29.94 in Calm   1.2 mph 89 % 0.00 in 172.0 W/m2 -RA
13:30 67.0 °F 63.6 °F 29.94 in Calm   2.3 mph 89 % 0.00 in 169.0 W/m2 -RA
13:35 67.0 °F 63.3 °F 29.94 in Calm   2.3 mph 88 % 0.00 in 139.0 W/m2 -RA
13:40 67.2 °F 63.5 °F 29.94 in Calm   1.2 mph 88 % 0.00 in 229.0 W/m2 -RA
13:45 67.5 °F 63.8 °F 29.94 in Calm     88 % 0.00 in 243.0 W/m2 -RA
13:50 67.6 °F 63.6 °F 29.94 in Calm   1.2 mph 87 % 0.00 in 200.0 W/m2 -RA
13:55 67.7 °F 63.7 °F 29.94 in Calm   1.2 mph 87 % 0.00 in 232.0 W/m2 -RA
14:00 67.7 °F 63.7 °F 29.94 in Calm   1.2 mph 87 % 0.00 in 287.0 W/m2 -RA
14:05 68.1 °F 64.1 °F 29.94 in Calm   1.2 mph 87 % 0.00 in 227.0 W/m2 OVC
14:10 68.2 °F 64.2 °F 29.93 in Calm   1.2 mph 87 % 0.00 in 353.0 W/m2 OVC
14:15 68.6 °F 64.6 °F 29.93 in Calm   1.2 mph 87 % 0.00 in 297.0 W/m2 OVC
14:20 68.8 °F 64.4 °F 29.93 in Calm   1.2 mph 86 % 0.00 in 295.0 W/m2 OVC
14:25 69.1 °F 64.7 °F 29.93 in Calm   2.3 mph 86 % 0.00 in 367.0 W/m2 OVC
14:30 69.2 °F 64.8 °F 29.93 in Calm   4.6 mph 86 % 0.00 in 237.0 W/m2 OVC
14:35 69.1 °F 64.4 °F 29.93 in Calm   4.6 mph 85 % 0.00 in 230.0 W/m2 OVC
14:40 68.8 °F 64.1 °F 29.93 in Calm   3.5 mph 85 % 0.00 in 241.0 W/m2 OVC
14:45 69.1 °F 64.7 °F 29.92 in East 0.1 mph 3.5 mph 86 % 0.00 in 267.0 W/m2 OVC
14:50 69.0 °F 64.6 °F 29.92 in NE 0.1 mph 2.3 mph 86 % 0.00 in 274.0 W/m2 OVC
14:55 69.0 °F 64.6 °F 29.92 in ENE 0.1 mph 2.3 mph 86 % 0.00 in 230.0 W/m2 OVC
15:00 69.2 °F 64.5 °F 29.92 in Calm   2.3 mph 85 % 0.00 in 269.0 W/m2 OVC
15:05 69.5 °F 65.1 °F 29.91 in Calm   1.2 mph 86 % 0.00 in 279.0 W/m2 OVC
15:10 69.7 °F 65.0 °F 29.92 in Calm     85 % 0.00 in 230.0 W/m2 OVC
15:15 69.4 °F 64.4 °F 29.91 in ENE 0.5 mph 2.3 mph 84 % 0.00 in 264.0 W/m2 OVC
15:20 69.8 °F 65.1 °F 29.92 in Calm   2.3 mph 85 % 0.00 in 279.0 W/m2 OVC
15:25 69.7 °F 65.0 °F 29.92 in Calm   2.3 mph 85 % 0.00 in 316.0 W/m2 OVC
15:30 69.8 °F 64.7 °F 29.92 in Calm   1.2 mph 84 % 0.00 in 264.0 W/m2 OVC
15:35 69.9 °F 65.2 °F 29.91 in Calm   1.2 mph 85 % 0.00 in 327.0 W/m2 OVC
15:40 70.3 °F 65.6 °F 29.91 in Calm     85 % 0.00 in 309.0 W/m2 OVC
15:45 70.5 °F 65.4 °F 29.92 in Calm   1.2 mph 84 % 0.00 in 236.0 W/m2 OVC
15:50 70.5 °F 65.4 °F 29.92 in Calm   1.2 mph 84 % 0.00 in 269.0 W/m2 OVC
15:55 70.5 °F 65.1 °F 29.92 in Calm   1.2 mph 83 % 0.00 in 234.0 W/m2 OVC
16:00 70.4 °F 65.0 °F 29.91 in Calm   1.2 mph 83 % 0.00 in 171.0 W/m2 OVC
16:05 70.7 °F 65.3 °F 29.91 in Calm     83 % 0.00 in 186.0 W/m2 OVC
16:10 70.6 °F 65.5 °F 29.91 in ENE 0.1 mph 1.2 mph 84 % 0.00 in 250.0 W/m2 OVC
16:16 70.9 °F 65.5 °F 29.91 in Calm   2.3 mph 83 % 0.00 in 250.0 W/m2 OVC
16:21 70.8 °F 65.4 °F 29.91 in Calm   2.3 mph 83 % 0.00 in 227.0 W/m2 OVC
16:26 71.1 °F 65.7 °F 29.91 in Calm   2.3 mph 83 % 0.00 in 188.0 W/m2 OVC
16:31 70.9 °F 65.5 °F 29.91 in Calm   2.3 mph 83 % 0.00 in 211.0 W/m2 OVC
16:36 71.1 °F 66.0 °F 29.90 in Calm   1.2 mph 84 % 0.00 in 227.0 W/m2 OVC
16:41 71.3 °F 65.9 °F 29.91 in NE 0.1 mph 1.2 mph 83 % 0.00 in 206.0 W/m2 OVC
16:46 71.2 °F 65.8 °F 29.91 in Calm   1.2 mph 83 % 0.00 in 214.0 W/m2 OVC
16:51 71.5 °F 65.7 °F 29.91 in Calm   1.2 mph 82 % 0.00 in 172.0 W/m2 OVC
16:56 71.2 °F 65.8 °F 29.91 in Calm   1.2 mph 83 % 0.00 in 114.0 W/m2 OVC
17:01 71.2 °F 65.8 °F 29.90 in Calm   1.2 mph 83 % 0.00 in 105.0 W/m2 OVC
17:06 71.2 °F 65.8 °F 29.91 in Calm   1.2 mph 83 % 0.00 in 93.0 W/m2 OVC
17:11 71.2 °F 65.8 °F 29.90 in Calm     83 % 0.00 in 125.0 W/m2 OVC
17:16 71.2 °F 65.8 °F 29.90 in Calm   1.2 mph 83 % 0.00 in 135.0 W/m2 OVC
17:21 71.1 °F 65.7 °F 29.91 in Calm   2.3 mph 83 % 0.00 in 134.0 W/m2 OVC
17:26 71.3 °F 65.9 °F 29.91 in Calm   3.5 mph 83 % 0.00 in 88.0 W/m2 OVC
17:31 71.1 °F 65.7 °F 29.90 in Calm   3.5 mph 83 % 0.00 in 118.0 W/m2 OVC
17:36 71.2 °F 66.1 °F 29.90 in Calm   3.5 mph 84 % 0.00 in 151.0 W/m2 OVC
17:41 71.4 °F 66.0 °F 29.90 in Calm   1.2 mph 83 % 0.00 in 128.0 W/m2 OVC
17:46 71.4 °F 66.0 °F 29.90 in NNE 0.1 mph 1.2 mph 83 % 0.00 in 113.0 W/m2 OVC
17:51 71.3 °F 65.9 °F 29.91 in Calm   1.2 mph 83 % 0.00 in 97.0 W/m2 OVC
17:56 71.2 °F 66.1 °F 29.91 in Calm   1.2 mph 84 % 0.00 in 74.0 W/m2 OVC
18:01 71.2 °F 66.1 °F 29.91 in Calm   1.2 mph 84 % 0.00 in 84.0 W/m2 OVC
18:06 70.9 °F 65.8 °F 29.91 in Calm   1.2 mph 84 % 0.00 in 93.0 W/m2 OVC
18:11 70.9 °F 65.8 °F 29.91 in Calm   1.2 mph 84 % 0.00 in 102.0 W/m2 OVC
18:16 70.8 °F 65.7 °F 29.91 in Calm   1.2 mph 84 % 0.00 in 90.0 W/m2 OVC
18:21 70.7 °F 65.6 °F 29.91 in Calm   1.2 mph 84 % 0.00 in 95.0 W/m2 OVC
18:26 70.8 °F 66.1 °F 29.91 in Calm   1.2 mph 85 % 0.00 in 62.0 W/m2 OVC
18:31 70.9 °F 66.2 °F 29.91 in NNE 0.4 mph 3.5 mph 85 % 0.00 in 67.0 W/m2 OVC
18:36 70.7 °F 66.0 °F 29.92 in Calm   3.5 mph 85 % 0.00 in 40.0 W/m2 OVC
18:41 70.5 °F 65.8 °F 29.92 in Calm   3.5 mph 85 % 0.00 in 54.0 W/m2 OVC
18:46 70.5 °F 65.8 °F 29.92 in Calm     85 % 0.00 in 49.0 W/m2 OVC
18:51 70.4 °F 65.7 °F 29.91 in Calm     85 % 0.00 in 44.0 W/m2 OVC
18:56 70.4 °F 65.7 °F 29.91 in NNE 0.1 mph 1.2 mph 85 % 0.00 in 40.0 W/m2 OVC
19:01 70.3 °F 65.6 °F 29.92 in Calm   1.2 mph 85 % 0.00 in 28.0 W/m2 OVC
19:06 70.2 °F 65.8 °F 29.91 in Calm   1.2 mph 86 % 0.00 in 19.0 W/m2 OVC
19:11 70.2 °F 65.8 °F 29.92 in NE 0.1 mph 1.2 mph 86 % 0.00 in 18.0 W/m2 OVC
19:16 70.2 °F 65.8 °F 29.92 in Calm   2.3 mph 86 % 0.00 in 30.0 W/m2 OVC
19:22 70.1 °F 65.7 °F 29.92 in NE 0.1 mph 2.3 mph 86 % 0.00 in 44.0 W/m2 OVC
19:27 70.1 °F 65.7 °F 29.92 in Calm   2.3 mph 86 % 0.00 in 32.0 W/m2 OVC
19:32 70.0 °F 65.6 °F 29.92 in Calm   2.3 mph 86 % 0.00 in 28.0 W/m2 OVC
19:37 69.9 °F 65.5 °F 29.92 in Calm   1.2 mph 86 % 0.00 in 33.0 W/m2 OVC
19:42 69.9 °F 65.9 °F 29.92 in Calm   1.2 mph 87 % 0.00 in 32.0 W/m2 OVC
19:47 69.9 °F 65.9 °F 29.92 in Calm     87 % 0.00 in 30.0 W/m2 OVC
19:52 69.9 °F 65.9 °F 29.92 in Calm   1.2 mph 87 % 0.00 in 32.0 W/m2 OVC
19:57 69.9 °F 65.9 °F 29.92 in Calm   1.2 mph 87 % 0.00 in 28.0 W/m2 OVC
20:02 69.9 °F 65.9 °F 29.92 in Calm   1.2 mph 87 % 0.00 in 19.0 W/m2 OVC
20:07 69.9 °F 65.9 °F 29.92 in Calm     87 % 0.00 in 14.0 W/m2 OVC
20:12 69.8 °F 65.8 °F 29.91 in Calm     87 % 0.00 in 11.0 W/m2 OVC
20:17 69.7 °F 65.7 °F 29.91 in Calm     87 % 0.00 in 7.0 W/m2 OVC
20:22 69.8 °F 65.8 °F 29.92 in Calm     87 % 0.00 in 5.0 W/m2 OVC
20:27 69.7 °F 65.7 °F 29.91 in Calm     87 % 0.00 in 0.0 W/m2 OVC
20:32 69.6 °F 65.6 °F 29.91 in Calm     87 % 0.00 in 0.0 W/m2 OVC
20:37 69.5 °F 65.5 °F 29.92 in Calm   1.2 mph 87 % 0.00 in 0.0 W/m2 OVC
20:42 69.5 °F 65.5 °F 29.91 in Calm   1.2 mph 87 % 0.00 in 0.0 W/m2 OVC
20:47 69.3 °F 65.3 °F 29.91 in Calm     87 % 0.00 in 0.0 W/m2 OVC
20:52 69.3 °F 65.3 °F 29.91 in Calm     87 % 0.00 in 0.0 W/m2 OVC
20:57 69.3 °F 65.6 °F 29.91 in Calm     88 % 0.00 in 0.0 W/m2 OVC
21:02 69.2 °F 65.5 °F 29.91 in Calm     88 % 0.00 in 0.0 W/m2 OVC
21:07 69.2 °F 65.5 °F 29.91 in Calm   1.2 mph 88 % 0.00 in 0.0 W/m2 OVC
21:12 69.1 °F 65.4 °F 29.91 in Calm   1.2 mph 88 % 0.00 in 0.0 W/m2 OVC
21:17 69.1 °F 65.4 °F 29.91 in Calm     88 % 0.00 in 0.0 W/m2 OVC
21:22 69.1 °F 65.4 °F 29.91 in Calm     88 % 0.00 in 0.0 W/m2 OVC
21:27 69.0 °F 65.3 °F 29.91 in Calm     88 % 0.00 in 0.0 W/m2 OVC
21:32 69.1 °F 65.4 °F 29.91 in Calm     88 % 0.00 in 0.0 W/m2 OVC
21:37 69.1 °F 65.4 °F 29.91 in Calm     88 % 0.00 in 0.0 W/m2 OVC
21:42 69.1 °F 65.4 °F 29.91 in Calm     88 % 0.00 in 0.0 W/m2 OVC
21:47 69.1 °F 65.4 °F 29.91 in Calm     88 % 0.00 in 0.0 W/m2 OVC
21:52 69.1 °F 65.4 °F 29.91 in Calm     88 % 0.00 in 0.0 W/m2 OVC
21:57 69.1 °F 65.4 °F 29.91 in Calm     88 % 0.00 in 0.0 W/m2 OVC
22:02 69.0 °F 65.3 °F 29.91 in Calm     88 % 0.00 in 0.0 W/m2 OVC
22:07 69.0 °F 65.3 °F 29.91 in Calm   1.2 mph 88 % 0.00 in 0.0 W/m2 OVC
22:12 69.0 °F 65.3 °F 29.91 in Calm   1.2 mph 88 % 0.00 in 0.0 W/m2 OVC
22:17 69.0 °F 65.3 °F 29.91 in Calm     88 % 0.00 in 0.0 W/m2 OVC
22:22 68.9 °F 65.2 °F 29.91 in Calm     88 % 0.00 in 0.0 W/m2 OVC
22:27 68.9 °F 65.2 °F 29.91 in Calm     88 % 0.00 in 0.0 W/m2 OVC
22:32 68.9 °F 65.2 °F 29.91 in Calm   1.2 mph 88 % 0.00 in 0.0 W/m2 OVC
22:37 68.8 °F 65.1 °F 29.91 in Calm   1.2 mph 88 % 0.00 in 0.0 W/m2 OVC
22:42 68.8 °F 65.1 °F 29.92 in Calm   1.2 mph 88 % 0.00 in 0.0 W/m2 OVC
22:47 68.7 °F 65.0 °F 29.92 in Calm   1.2 mph 88 % 0.00 in 0.0 W/m2 OVC
22:52 68.7 °F 65.0 °F 29.92 in Calm     88 % 0.00 in 0.0 W/m2 OVC
22:58 68.7 °F 65.0 °F 29.92 in Calm     88 % 0.00 in 0.0 W/m2 OVC
23:03 68.6 °F 64.9 °F 29.92 in Calm     88 % 0.00 in 0.0 W/m2 OVC
23:08 68.6 °F 64.9 °F 29.92 in Calm     88 % 0.00 in 0.0 W/m2 OVC
23:18 68.6 °F 64.9 °F 29.92 in Calm     88 % 0.00 in 0.0 W/m2 OVC
23:23 68.6 °F 64.9 °F 29.92 in Calm     88 % 0.00 in 0.0 W/m2 OVC
23:28 68.6 °F 64.9 °F 29.92 in Calm     88 % 0.00 in 0.0 W/m2 OVC
23:33 68.5 °F 64.8 °F 29.92 in Calm     88 % 0.00 in 0.0 W/m2 OVC
23:38 68.3 °F 64.6 °F 29.92 in Calm     88 % 0.00 in 0.0 W/m2 OVC
23:43 68.2 °F 64.5 °F 29.92 in Calm     88 % 0.00 in 0.0 W/m2 OVC
23:48 68.1 °F 64.7 °F 29.92 in Calm     89 % 0.00 in 0.0 W/m2 OVC
23:53 68.1 °F 64.7 °F 29.92 in Calm     89 % 0.00 in 0.0 W/m2 OVC
23:58 68.2 °F 64.8 °F 29.93 in Calm     89 % 0.00 in 0.0 W/m2 OVC
Air Products Campus Weather
Compliments of Weather Underground - 3.5 mb